Regional Weather Roundup
Issued by NWS

Home | Current Version | Previous Version | Text Only | Print | Product List | Glossary Off
Versions: 1 2 3 4 5 6 7 8 9 10 11 12 13 14 15 16 17 18 19 20 21 22 23 24 25 26 27

000
ASUS45 KBOI 222010
RWRID

IDAHO REGIONAL WEATHER ROUNDUP
NATIONAL WEATHER SERVICE BOISE ID
200 PM MDT SAT APR 22 2017

NOTE: "FAIR" INDICATES FEW OR NO CLOUDS BELOW 12000 FEET
WITH NO SIGNIFICANT WEATHER AND/OR OBSTRUCTIONS TO VISIBILITY

IDZ012-014-222100-
SOUTHWEST IDAHO


CITY           SKY/WX    TMP DP  RH WIND       PRES   REMARKS
BOISE          PTSUNNY   66  26  22 SE29G39   29.97F
CALDWELL       PTSUNNY   66  34  30 E28G35    29.95F
MOUNTAIN HOME  PTSUNNY   66  30  25 E29G36    29.98F
$$

IDZ016-017-222100-
SOUTHCENTRAL IDAHO


CITY           SKY/WX    TMP DP  RH WIND       PRES   REMARKS
BURLEY         SUNNY     60  27  28 VRB5      30.08F
JEROME         SUNNY     62  25  24 E12G18    30.08F
TWIN FALLS     SUNNY     62  28  27 SE17G23   30.06F
$$

IDZ019>023-222100-
SOUTHEAST IDAHO


CITY           SKY/WX    TMP DP  RH WIND       PRES   REMARKS
IDAHO FALLS    MOSUNNY   55  32  41 SW9       30.17F
POCATELLO      MOSUNNY   59  31  34 S17       30.15F
REXBURG        SUNNY     53  32  44 SW15      30.16F
$$

IDZ006-010-011-018-031-032-222100-
CENTRAL IDAHO MOUNTAINS


CITY           SKY/WX    TMP DP  RH WIND       PRES   REMARKS
MCCALL         NOT AVBL
HAILEY         MOSUNNY   54  28  37 S10       30.15F
STANLEY          N/A     47  19  33 S16G30    30.07F
SALMON         CLOUDY    61  27  27 SW17G25   30.00F
CHALLIS        SUNNY     58  22  24 SE20G28   30.03F
$$

IDZ002-004-006-007-026-222100-
NORTHERN IDAHO


CITY           SKY/WX    TMP DP  RH WIND       PRES   REMARKS
LEWISTON       MOSUNNY   70  33  25 SE9G20    29.84F
LOWELL           N/A     71  34  25 N3        29.87F
COEUR D`ALENE  SUNNY     64  29  26 SE13      29.88F
MULLAN PASS    SUNNY     47  19  33 VRB7      29.96F
$$




USA.gov is the U.S. government's official web portal to all federal, state and local government web resources and services.